AL7LI Weather Reports


time (UTC)temp
C
wind
direction
speed
KPH
gust
KPH
rain 1hr
cm
rain 24hr
cm
rain mn
cm
humidity
%
barometer
mb
20260506170016 23 171 3.2 11.3 0.00 0.00 0.00 32 1014.4
20260506163016 22 184 3.2 11.3 0.00 0.00 0.00 34 1014.4
20260506160016 21 157 3.2 8.0 0.00 0.00 0.00 36 1014.4
20260506153016 20 170 1.6 8.0 0.00 0.00 0.00 38 1014.3
20260506150016 19 186 1.6 8.0 0.00 0.00 0.00 39 1014.0
20260506143016 18 162 3.2 8.0 0.00 0.00 0.00 42 1013.9
20260506140017 16 141 1.6 6.4 0.00 0.00 0.00 45 1013.6
20260506133016 15 133 1.6 4.8 0.00 0.00 0.00 48 1013.1
20260506130016 14 100 0.0 3.2 0.00 0.00 0.00 52 1012.7
20260506123016 14 203 0.0 1.6 0.00 0.00 0.00 52 1012.5
20260506120017 15 0.0 1.6 0.00 0.00 0.00 50 1012.3
20260506113016 15 210 0.0 4.8 0.00 0.00 0.00 49 1012.0
20260506110015 15 215 0.0 4.8 0.00 0.00 0.00 48 1011.8
20260506103015 16 202 1.6 8.0 0.00 0.00 0.00 45 1011.5
20260506100015 17 204 1.6 8.0 0.00 0.00 0.00 43 1011.3
20260506093016 18 183 1.6 12.9 0.00 0.00 0.00 39 1011.2
20260506090015 19 138 4.8 12.9 0.00 0.00 0.00 38 1011.1
20260506083016 19 129 3.2 9.7 0.00 0.00 0.00 39 1011.1
20260506073015 19 165 1.6 6.4 0.00 0.00 0.00 40 1010.8
20260506043015 22 146 4.8 11.3 0.00 0.00 0.00 29 1008.6
20260506040016 22 148 4.8 11.3 0.00 0.00 0.00 28 1008.2
20260506033015 23 155 3.2 11.3 0.00 0.00 0.00 27 1007.8
20260506030015 24 151 3.2 11.3 0.00 0.00 0.00 26 1007.3
20260506023015 25 156 4.8 14.5 0.00 0.00 0.00 24 1007.0
20260506020015 26 164 6.4 16.1 0.00 0.00 0.00 23 1006.7
20260506013116 27 190 4.8 16.1 0.00 0.00 0.00 22 1006.5
20260506010035 27 202 4.8 17.7 0.00 0.00 0.00 21 1006.4
20260506003015 27 227 4.8 17.7 0.00 0.00 0.00 21 1006.4
20260506000017 27 243 4.8 16.1 0.00 0.00 0.00 21 1006.4
20260505233037 26 228 3.2 16.1 0.00 0.00 0.00 21 1006.4